Regional Weather Roundup
Issued by NWS

Home | Current Version | Previous Version | Graphics & Text | Print | Product List | Glossary On
Versions: 1 2 3 4 5 6 7 8 9 10 11 12 13 14 15 16 17 18 19 20 21 22 23 24 25 26 27 28 29 30 31 32 33 34 35 36 37 38 39 40 41 42 43 44 45 46 47 48 49 50
000
ASUS43 KMPX 270601
RWRMN
WEATHER ROUNDUP FOR MINNESOTA
NATIONAL WEATHER SERVICE TWIN CITIES/CHANHASSEN MN
100 AM CDT FRI MAY 27 2016


NOTE: "FAIR" INDICATES FEW OR NO CLOUDS BELOW 12,000 FEET WITH NO
SIGNIFICANT WEATHER AND/OR OBSTRUCTIONS TO VISIBILITY. N/A MEANS
CURRENT SKY AND/OR WEATHER CONDITIONS ARE NOT AVAILABLE.

MNZ060>063-068>070-270700-
   Twin Cities Metro

CITY           SKY/WX    TMP DP  RH WIND       PRES   REMARKS
TWIN CITIES    CLOUDY    69  54  58 SE3       29.84R
6HR MIN TEMP:  69; 6HR MAX TEMP:  79;

ST PAUL        CLOUDY    65  58  78 SE5       29.84R
CRYSTAL        CLOUDY    64  54  69 CALM      29.83R
BLAINE         PTCLDY    64  55  72 CALM      29.84S
EDEN PRAIRIE   MOCLDY    67  54  63 CALM      29.83S
6HR MIN TEMP:  66; 6HR MAX TEMP:  79;

SOUTH ST PAUL  MOCLDY    67  56  67 CALM      29.85R
LAKE ELMO      FAIR      61  59  94 CALM      29.86S
$$
MNZ001>005-007-008-013>017-022>024-027-028-270700-
   Northwest Minnesota

CITY           SKY/WX    TMP DP  RH WIND       PRES   REMARKS
BEMIDJI        CLEAR     54  50  88 S3        29.81R
HALLOCK        CLEAR     54  52  94 W3        29.77F
ROSEAU         CLEAR     57  52  82 W3        29.77S
WARROAD        CLEAR     55  52  88 SW7       29.77S
THIEF RVR FALL CLOUDY    55  52  88 SW5       29.81S
CROOKSTON      CLOUDY    57  55  94 SE9       29.80S
FOSSTON        PTCLDY    55  54  94 CALM      29.81S
DETROIT LAKES  PTCLDY    61  54  77 SE6       29.82S
MOORHEAD       CLOUDY    61  55  82 N9        29.82R
PARK RAPIDS    CLOUDY    58  52  80 SE6       29.82R
MAHNOMEN       MOCLDY    60  54  80 SE5       29.79R
$$
MNZ006-009>011-018-025>026-270700-
   North Central Minnesota

CITY           SKY/WX    TMP DP  RH WIND       PRES   REMARKS
BAUDETTE       CLEAR     53  51  93 SW6       29.78R
FLAG ISLAND    CLEAR     57  54  88 W6        29.75R
INTL FALLS     CLEAR     53  51  93 SW3       29.79R
6HR MIN TEMP:  52; 6HR MAX TEMP:  72;

WASKISH        CLEAR     55  52  88 SW5       29.80R
BIG FORK       CLOUDY    52  48  87 CALM      29.82R
LONGVILLE      CLOUDY    52  50  93 CALM      29.83R
GRAND RAPIDS   PTCLDY    53  50  89 E3        29.85R
CRANE LAKE     CLEAR     48  48 100 CALM      29.83R
ORR            MOCLDY    54  50  87 CALM      29.79R
COOK           MOCLDY    52  48  87 CALM      29.83R
WALKER         FAIR      52  50  93 CALM      29.82R
$$
MNZ012-019>021-037-270700-
   Northeast Minnesota

CITY           SKY/WX    TMP DP  RH WIND       PRES   REMARKS
DULUTH         PTCLDY    50  47  89 W6        29.85R
6HR MIN TEMP:  50; 6HR MAX TEMP:  59;

ELY            CLOUDY    57  54  88 SW3       29.83R
HIBBING        CLOUDY    49  48  97 SE3       29.83R
EVELETH        CLOUDY    52  50  93 CALM      29.85R
DULUTH HARBOR  FOG       48  46  93 SW3       29.86S VSB 1/2
TWO HARBORS    CLOUDY    48  45  87 CALM      29.83S
GRAND MARAIS     N/A     43  42  97 CALM      29.85R
G MARAIS ARPRT PTCLDY    50  46  87 SW3       29.85R
$$
MNZ029>031-032-039>041-046>048-054>057-064-270700-
   West Central Minnesota

CITY           SKY/WX    TMP DP  RH WIND       PRES   REMARKS
FERGUS FALLS   MOCLDY    63  52  67 SW8       29.78R
WHEATON        CLOUDY    63  57  82 SW5       29.83F
MORRIS         CLOUDY    61  48  63 CALM      29.81F
ALEXANDRIA     CLOUDY    64  49  57 SE7       29.84S
ELBOW LAKE     FAIR      62  50  66 SW9       29.83R
WADENA         PTCLDY    57  52  82 SE3       29.82F
GLENWOOD       CLOUDY    63  52  67 SE3       29.84F
APPLETON       CLOUDY    61  54  77 CALM      29.81F
ORTONVILLE     CLOUDY    64  52  63 NW9       29.82S
MADISON        CLOUDY    61  50  67 CALM      29.82S
WILLMAR        FAIR      61  55  82 SE3       29.84R
$$
MNZ033>034-036-042>043-049>051-058-059-270700-
   Central Minnesota

CITY           SKY/WX    TMP DP  RH WIND       PRES   REMARKS
ST CLOUD       CLOUDY    61  55  81 CALM      29.83R
6HR MIN TEMP:  60; 6HR MAX TEMP:  78;

SAUK CENTRE    FAIR      59  52  77 CALM      29.83F
PAYNESVILLE    CLOUDY    61  56  84 CALM      29.83F
AITKIN         CLOUDY    54  48  82 CALM      29.82S
PINE RIVER     MOCLDY    54  54 100 CALM      29.87R
BRAINERD       CLOUDY    57  51  80 CALM      29.84R
STAPLES        MOCLDY    57  50  77 CALM      29.83S
LONG PRAIRIE   FAIR      59  54  82 CALM      29.84R
LITTLE FALLS   CLOUDY    55  52  88 CALM      29.83F
LITCHFIELD     CLOUDY    68  57  68 SE7       29.85R
BUFFALO        CLOUDY    62  57  82 CALM      29.84S
MAPLE LAKE     CLOUDY    62  58  85 CALM      29.85R
HUTCHINSON     CLEAR     63  59  89 CALM      29.85S
$$
MNZ037-044-045-052-053-270700-
   East Central Minnesota

CITY           SKY/WX    TMP DP  RH WIND       PRES   REMARKS
PRINCETON      CLOUDY    61  55  82 CALM      29.85R
MORA           CLOUDY    55  52  88 CALM      29.87R
CAMBRIDGE      MOCLDY    63  54  72 CALM      29.83R
RUSH CITY      MOCLDY    57  54  89 CALM      29.85R
MOOSE LAKE     MOCLDY    52  50  93 CALM      29.83S
HINCKLEY       FAIR      54  52  94 CALM      29.85R
CLOQUET        CLOUDY    46  45  93 CALM      29.85S
MCGREGOR       CLOUDY    54  50  87 CALM      29.84S
$$
MNZ071>073-080-081-089-090-097-098-270700-
   Southwest Minnesota

CITY           SKY/WX    TMP DP  RH WIND       PRES   REMARKS
MONTEVIDEO     MOCLDY    63  50  63 CALM      29.83S
GRANITE FALLS  CLOUDY    64  52  67 E3        29.84R
CANBY          CLOUDY    61  55  81 W5        29.82F
MARSHALL       CLOUDY    65  54  67 S6        29.83R
REDWOOD FALLS  CLOUDY    66  55  67 S8        29.82S
OLIVIA         CLOUDY    63  52  67 SE5       29.83R
PIPESTONE      CLOUDY    63  55  77 SE7       29.82F
WINDOM         CLOUDY    64  57  77 CALM      29.86R
WORTHINGTON    CLOUDY    62  58  86 SE3       29.86S
JACKSON        CLOUDY    63  54  72 CALM      29.85F
TRACY          CLOUDY    67  57  70 S7        29.84S
SLAYTON        CLOUDY    61  57  85 S5        29.85S
$$
MNZ065>067-074>077-082>085-091>093-270700-
   South Central Minnesota

CITY           SKY/WX    TMP DP  RH WIND       PRES   REMARKS
MANKATO        CLOUDY    68  57  68 S6        29.83F
NEW ULM        CLOUDY    66  57  72 S7        29.84R
ST JAMES       CLOUDY    61  54  77 SW3       29.85S
FAIRMONT       CLOUDY    64  55  72 CALM      29.84R
FARIBAULT      CLOUDY    68  57  68 S7        29.86R
OWATONNA       CLOUDY    66  57  72 S3        29.87S
WASECA         CLOUDY    63  55  77 S6        29.87S
ALBERT LEA     CLOUDY    66  55  68 S5        29.87R
$$
MNZ078>079-086>088-094>096-270700-
   Southeast Minnesota

CITY           SKY/WX    TMP DP  RH WIND       PRES   REMARKS
ROCHESTER      CLOUDY    64  61  90 W7        29.89R
6HR MIN TEMP:  64; 6HR MAX TEMP:  73;

STANTON        CLOUDY    64  57  78 S3        29.84R
DODGE CENTER   CLOUDY    64  57  77 SW7       29.89R
WINONA         CLOUDY    63  59  88 CALM      29.86R
AUSTIN         CLOUDY    64  55  72 CALM      29.87S
PRESTON        CLOUDY    63  57  79 CALM      29.89R
$$
ABBREVIATIONS USED IN REMARKS
   TC - TEMPERATURES IN CELSIUS
  WCI - WIND CHILL INDEX
   HX - HEAT INDEX
  VSB - VISIBILITY
$$




USA.gov is the U.S. government's official web portal to all federal, state and local government web resources and services.